Zurück zum Katalog

STARLINK-32269

AktivKommunikationVLEO
NORAD 60377·PAYLOAD·🇺🇸 United States

Gestartet Aug 4, 2024 von Vandenberg Space Force Base

Loading…

Nächste Überflüge (nächste 24 Stunden)

TLE

AktuellSource: CelesTrak SupGP

Epoche: Sep 14, 2026, 21:37 UTC

1 60377C 24138Y   26257.90118056 -.00065793  00000+0 -21151-2 0  2573
2 60377  53.1568 149.7034 0001257  92.5182 181.4702 15.31744118    12

Verfolge STARLINK-32269 in Echtzeit mit AllMySat

Download on the App Store